START_TIME,STEP,MOV.,M34,t_acc.,L5,t_acc.,L18,t_acc.,L14,t_acc.
1979-07-03 09:00:25.530 ,0,0,0.,12.0,0.,12.0,0.,12.0,0.,12.0
1979-07-03 09:00:37.530 ,0,0,0.,12.0,0.,12.0,0.,12.0,0.,12.0
1979-07-03 09:00:49.530 ,0,1,0.,12.0,0.,12.0,0.,12.0,0.,12.0
1979-07-03 09:01:01.530 ,0,1,0.,12.0,0.,12.0,0.,12.0,0.,12.0
1979-07-03 09:01:13.530 ,0,0,0.,12.0,0.,12.0,0.,12.0,0.,12.0
1979-07-03 09:01:25.530 ,0,0,0.,12.0,0.,12.0,0.,12.0,0.,12.0
1979-07-03 09:01:37.530 ,1,1,0.,12.0,0.,12.0,0.,12.0,0.,12.0
1979-07-03 09:01:49.530 ,1,1,0.,12.0,0.,12.0,0.,12.0,0.,12.0
1979-07-03 09:02:01.530 ,1,0,0.,12.0,0.,12.0,0.,12.0,0.,12.0
1979-07-03 09:02:13.530 ,1,0,0.,12.0,0.,12.0,0.,12.0,0.,12.0
1979-07-03 09:02:25.530 ,2,1,0.,12.0,0.,12.0,0.,12.0,0.,12.0
1979-07-03 09:02:37.530 ,2,1,0.,12.0,0.,12.0,0.,12.0,0.,12.0
1979-07-03 09:02:49.530 ,2,0,0.,12.0,0.,12.0,0.,12.0,0.,12.0
1979-07-03 09:03:01.530 ,2,0,0.,12.0,0.,12.0,0.,12.0,0.,12.0
1979-07-03 09:03:13.530 ,3,1,0.,12.0,0.,12.0,0.,12.0,0.,12.0
1979-07-03 09:03:25.530 ,3,1,0.,12.0,0.,12.0,0.,12.0,0.,12.0
1979-07-03 09:03:37.530 ,3,0,0.,12.0,0.,12.0,0.,12.0,0.,12.0
1979-07-03 09:03:49.530 ,3,0,0.,12.0,0.,12.0,0.,12.0,0.,12.0
1979-07-03 09:04:01.530 ,4,1,0.,12.0,0.,12.0,0.,12.0,0.,12.0
1979-07-03 09:04:13.530 ,4,1,0.,12.0,0.,12.0,0.,12.0,0.,12.0
1979-07-03 09:04:25.530 ,4,0,0.,12.0,0.,12.0,0.,12.0,0.,12.0
1979-07-03 09:04:37.530 ,4,0,0.,12.0,0.,12.0,0.,12.0,0.,12.0
1979-07-03 09:04:49.530 ,5,1,0.,12.0,0.,12.0,0.,12.0,0.,12.0
1979-07-03 09:05:01.530 ,5,1,0.,12.0,0.,12.0,0.,12.0,0.,12.0
1979-07-03 09:05:13.530 ,5,0,0.,12.0,0.,12.0,0.,12.0,0.,12.0
1979-07-03 09:05:25.530 ,5,0,0.,12.0,0.,12.0,0.,12.0,0.,12.0
1979-07-03 09:05:37.530 ,6,1,0.,12.0,0.,12.0,0.,12.0,0.,12.0
1979-07-03 09:05:49.530 ,6,1,0.,12.0,0.,12.0,0.,12.0,0.,12.0
1979-07-03 09:06:01.530 ,6,0,0.,12.0,0.,12.0,0.,12.0,0.,12.0
1979-07-03 09:06:13.530 ,6,0,0.,12.0,0.,12.0,0.,12.0,0.,12.0
1979-07-03 09:06:25.530 ,7,1,0.,12.0,0.,12.0,0.,12.0,0.,12.0
1979-07-03 09:06:37.530 ,7,1,0.,12.0,0.,12.0,0.,12.0,0.,12.0
1979-07-03 09:06:49.530 ,7,0,0.,12.0,0.,12.0,0.,12.0,0.,12.0
1979-07-03 09:07:01.530 ,7,0,0.,12.0,0.,12.0,0.,12.0,0.,12.0
1979-07-03 09:07:13.530 ,7,1,0.,12.0,0.,12.0,0.,12.0,0.,12.0
1979-07-03 09:07:25.530 ,7,1,0.,12.0,0.,12.0,0.,12.0,0.,12.0
1979-07-03 09:07:37.530 ,7,0,0.,12.0,0.,12.0,0.,12.0,0.,12.0
1979-07-03 09:07:49.530 ,7,0,0.,12.0,0.,12.0,0.,12.0,0.,12.0
1979-07-03 09:08:01.530 ,6,1,0.,12.0,0.,12.0,0.,12.0,0.,12.0
1979-07-03 09:08:13.530 ,6,1,0.,12.0,0.,12.0,0.,12.0,0.,12.0
1979-07-03 09:08:25.530 ,6,0,0.,12.0,0.,12.0,0.,12.0,0.,12.0
1979-07-03 09:08:37.530 ,6,0,0.,12.0,0.,12.0,0.,12.0,0.,12.0
1979-07-03 09:08:49.530 ,5,1,0.,12.0,0.,12.0,0.,12.0,0.,12.0
1979-07-03 09:09:01.530 ,5,1,0.,12.0,0.,12.0,0.,12.0,0.,12.0
1979-07-03 09:09:13.530 ,5,0,0.,12.0,0.,12.0,0.,12.0,0.,12.0
1979-07-03 09:09:25.530 ,5,0,0.,12.0,0.,12.0,0.,12.0,0.,12.0
1979-07-03 09:09:37.530 ,4,1,0.,12.0,0.,12.0,0.,12.0,0.,12.0
1979-07-03 09:09:49.530 ,4,1,0.,12.0,0.,12.0,0.,12.0,0.,12.0
1979-07-03 09:10:01.530 ,4,0,0.,12.0,0.,12.0,0.,12.0,0.,12.0
1979-07-03 09:10:13.530 ,4,0,0.,12.0,0.,12.0,0.,12.0,0.,12.0
1979-07-03 09:10:25.530 ,3,1,0.,12.0,0.,12.0,0.,12.0,0.,12.0
1979-07-03 09:10:37.530 ,3,1,0.,12.0,0.,12.0,0.,12.0,0.,12.0
1979-07-03 09:10:49.530 ,3,0,0.,12.0,0.,12.0,0.,12.0,0.,12.0
1979-07-03 09:11:01.530 ,3,0,0.,12.0,0.,12.0,0.,12.0,0.,12.0
1979-07-03 09:11:13.530 ,2,1,0.,12.0,0.,12.0,0.,12.0,0.,12.0
1979-07-03 09:11:25.530 ,2,1,0.,12.0,0.,12.0,0.,12.0,0.,12.0
1979-07-03 09:11:37.530 ,2,0,0.,12.0,0.,12.0,0.,12.0,0.,12.0
1979-07-03 09:11:49.530 ,2,0,0.,12.0,0.,12.0,0.,12.0,0.,12.0
1979-07-03 09:12:01.530 ,1,1,0.,12.0,0.,12.0,0.,12.0,0.,12.0
1979-07-03 09:12:13.530 ,1,1,0.,12.0,0.,12.0,0.,12.0,0.,12.0
1979-07-03 09:12:25.530 ,1,0,0.,12.0,0.,12.0,0.,12.0,0.,12.0
1979-07-03 09:12:37.530 ,1,0,0.,12.0,0.,12.0,0.,12.0,0.,12.0
1979-07-03 09:12:49.530 ,0,1,0.,12.0,0.,12.0,0.,12.0,0.,12.0
1979-07-03 09:13:01.530 ,0,1,0.,12.0,0.,12.0,0.,12.0,0.,12.0
1979-07-03 09:13:13.530 ,0,0,0.,12.0,0.,12.0,0.,12.0,0.,12.0
1979-07-03 09:13:25.530 ,0,0,0.,12.0,0.,12.0,0.,12.0,0.,12.0
1979-07-03 09:13:37.530 ,0,1,0.,12.0,0.,12.0,0.,12.0,0.,12.0
1979-07-03 09:13:49.530 ,0,1,0.,12.0,0.,12.0,0.,12.0,0.,12.0
1979-07-03 09:14:01.530 ,0,0,0.,12.0,0.,12.0,0.,12.0,0.,12.0
1979-07-03 09:14:13.530 ,0,0,0.,12.0,0.,12.0,0.,12.0,0.,12.0
1979-07-03 09:14:25.530 ,1,1,0.,12.0,0.,12.0,0.,12.0,0.,12.0
1979-07-03 09:14:37.530 ,1,1,0.,12.0,0.,12.0,0.,12.0,0.,12.0
1979-07-03 09:14:49.530 ,1,0,0.,12.0,0.,12.0,0.,12.0,0.,12.0
1979-07-03 09:15:01.530 ,1,0,0.,12.0,0.,12.0,0.,12.0,0.,12.0
1979-07-03 09:15:13.530 ,2,1,0.,12.0,0.,12.0,0.,12.0,0.,12.0
1979-07-03 09:15:25.530 ,2,1,0.,12.0,0.,12.0,0.,12.0,0.,12.0
1979-07-03 09:15:37.530 ,2,0,0.,12.0,0.,12.0,0.,12.0,0.,12.0
1979-07-03 09:15:49.530 ,2,0,0.,12.0,0.,12.0,0.,12.0,0.,12.0
1979-07-03 09:16:01.530 ,3,1,0.,12.0,0.,12.0,0.,12.0,0.,12.0
1979-07-03 09:16:13.530 ,3,1,0.,12.0,0.,12.0,0.,12.0,1.,12.0
1979-07-03 09:16:25.530 ,0,0,0.,12.0,0.,12.0,0.,12.0,0.,12.0
1979-07-03 09:16:37.530 ,0,0,0.,12.0,0.,12.0,0.,12.0,0.,12.0
1979-07-03 09:16:49.530 ,4,1,0.,12.0,0.,12.0,0.,12.0,0.,12.0
1979-07-03 09:17:01.530 ,4,1,0.,12.0,0.,12.0,0.,12.0,0.,12.0
1979-07-03 09:17:13.530 ,4,0,0.,12.0,0.,12.0,0.,12.0,0.,12.0
1979-07-03 09:17:25.530 ,4,0,0.,12.0,0.,12.0,0.,12.0,0.,12.0
1979-07-03 09:17:37.530 ,5,1,0.,12.0,0.,12.0,0.,12.0,0.,12.0
1979-07-03 09:17:49.530 ,5,1,0.,12.0,0.,12.0,0.,12.0,0.,12.0
1979-07-03 09:18:01.530 ,5,0,0.,12.0,0.,12.0,0.,12.0,0.,12.0
1979-07-03 09:18:13.530 ,5,0,0.,12.0,0.,12.0,0.,12.0,0.,12.0
1979-07-03 09:18:25.530 ,6,1,0.,12.0,0.,12.0,0.,12.0,0.,12.0
1979-07-03 09:18:37.530 ,6,1,0.,12.0,0.,12.0,0.,12.0,0.,12.0
1979-07-03 09:18:49.530 ,6,0,0.,12.0,0.,12.0,0.,12.0,0.,12.0
1979-07-03 09:19:01.530 ,6,0,0.,12.0,0.,12.0,0.,12.0,0.,12.0
1979-07-03 09:19:13.530 ,7,1,0.,12.0,0.,12.0,0.,12.0,0.,12.0
1979-07-03 09:19:25.530 ,7,1,0.,12.0,0.,12.0,0.,12.0,0.,12.0
1979-07-03 09:19:37.530 ,7,0,0.,12.0,0.,12.0,0.,12.0,0.,12.0
1979-07-03 09:19:49.530 ,7,0,0.,12.0,0.,12.0,0.,12.0,0.,12.0
1979-07-03 09:20:01.530 ,7,1,0.,12.0,0.,12.0,0.,12.0,0.,12.0
1979-07-03 09:20:13.530 ,7,1,0.,12.0,0.,12.0,0.,12.0,0.,12.0
1979-07-03 09:20:25.530 ,7,0,0.,12.0,0.,12.0,0.,12.0,0.,12.0
1979-07-03 09:20:37.530 ,7,0,0.,12.0,0.,12.0,0.,12.0,0.,12.0
1979-07-03 09:20:49.530 ,6,1,0.,12.0,0.,12.0,0.,12.0,0.,12.0
1979-07-03 09:21:01.530 ,6,1,0.,12.0,0.,12.0,0.,12.0,0.,12.0
1979-07-03 09:21:13.530 ,6,0,0.,12.0,0.,12.0,0.,12.0,0.,12.0
1979-07-03 09:21:25.530 ,6,0,0.,12.0,0.,12.0,0.,12.0,0.,12.0
1979-07-03 09:21:37.530 ,5,1,0.,12.0,0.,12.0,0.,12.0,0.,12.0
1979-07-03 09:21:49.530 ,5,1,0.,12.0,0.,12.0,0.,12.0,0.,12.0
1979-07-03 09:22:01.530 ,5,0,,0,,0,,0,,0
1979-07-03 09:22:13.530 ,5,0,0.,12.0,0.,12.0,0.,12.0,0.,12.0
1979-07-03 09:22:25.530 ,4,1,0.,12.0,0.,12.0,0.,12.0,0.,12.0
1979-07-03 09:22:37.530 ,4,1,0.,12.0,0.,12.0,0.,12.0,0.,12.0
1979-07-03 09:22:49.530 ,4,0,0.,12.0,0.,12.0,0.,12.0,0.,12.0
1979-07-03 09:23:01.530 ,4,0,0.,12.0,0.,12.0,0.,12.0,0.,12.0
1979-07-03 09:23:13.530 ,3,1,0.,12.0,0.,12.0,0.,12.0,0.,12.0
1979-07-03 09:23:25.530 ,3,1,1.,12.0,0.,12.0,0.,12.0,0.,12.0
1979-07-03 09:23:37.530 ,3,0,0.,12.0,0.,12.0,0.,12.0,0.,12.0
1979-07-03 09:23:49.530 ,3,0,0.,12.0,0.,12.0,0.,12.0,0.,12.0
1979-07-03 09:24:01.530 ,2,1,0.,12.0,0.,12.0,0.,12.0,0.,12.0
1979-07-03 09:24:13.530 ,2,1,0.,12.0,0.,12.0,0.,12.0,0.,12.0
1979-07-03 09:24:25.530 ,2,0,0.,12.0,0.,12.0,0.,12.0,0.,12.0
1979-07-03 09:24:37.530 ,2,0,0.,12.0,0.,12.0,0.,12.0,0.,12.0
1979-07-03 09:24:49.530 ,1,1,0.,12.0,0.,12.0,0.,12.0,0.,12.0
1979-07-03 09:25:01.530 ,1,1,0.,12.0,0.,12.0,0.,12.0,0.,12.0
1979-07-03 09:25:13.530 ,1,0,0.,12.0,0.,12.0,0.,12.0,0.,12.0
1979-07-03 09:25:25.530 ,1,0,0.,12.0,0.,12.0,0.,12.0,0.,12.0
1979-07-03 09:25:37.530 ,0,1,0.,12.0,0.,12.0,0.,12.0,0.,12.0
1979-07-03 09:25:49.530 ,0,1,0.,12.0,0.,12.0,0.,12.0,0.,12.0
1979-07-03 09:26:01.530 ,0,0,0.,12.0,0.,12.0,0.,12.0,0.,12.0
1979-07-03 09:26:13.530 ,0,0,0.,12.0,0.,12.0,0.,12.0,0.,12.0
1979-07-03 09:26:25.530 ,0,1,0.,12.0,0.,12.0,0.,12.0,0.,12.0
1979-07-03 09:26:37.530 ,0,1,0.,12.0,0.,12.0,0.,12.0,0.,12.0
1979-07-03 09:26:49.530 ,0,0,0.,12.0,0.,12.0,0.,12.0,0.,12.0
1979-07-03 09:27:01.530 ,0,0,0.,12.0,0.,12.0,0.,12.0,0.,12.0
1979-07-03 09:27:13.530 ,1,1,0.,12.0,0.,12.0,0.,12.0,0.,12.0
1979-07-03 09:27:25.530 ,1,1,0.,12.0,0.,12.0,0.,12.0,0.,12.0
1979-07-03 09:27:37.530 ,1,0,0.,12.0,0.,12.0,0.,12.0,0.,12.0
1979-07-03 09:27:49.530 ,1,0,0.,12.0,0.,12.0,0.,12.0,0.,12.0
1979-07-03 09:28:01.530 ,2,1,0.,12.0,0.,12.0,0.,12.0,0.,12.0
1979-07-03 09:28:13.530 ,2,1,0.,12.0,0.,12.0,0.,12.0,0.,12.0
1979-07-03 09:28:25.530 ,2,0,0.,12.0,0.,12.0,0.,12.0,0.,12.0
1979-07-03 09:28:37.530 ,2,0,0.,12.0,0.,12.0,0.,12.0,0.,12.0
1979-07-03 09:28:49.530 ,3,1,,0,,0,,0,,0
1979-07-03 09:29:01.530 ,3,1,1.,12.0,0.,12.0,0.,12.0,0.,12.0
1979-07-03 09:29:13.530 ,3,0,0.,12.0,0.,12.0,0.,12.0,0.,12.0
1979-07-03 09:29:25.530 ,3,0,0.,12.0,0.,12.0,0.,12.0,0.,12.0
1979-07-03 09:29:37.530 ,4,1,0.,12.0,0.,12.0,0.,12.0,0.,12.0
1979-07-03 09:29:49.530 ,4,1,0.,12.0,0.,12.0,0.,12.0,0.,12.0
1979-07-03 09:30:01.530 ,4,0,0.,12.0,0.,12.0,0.,12.0,0.,12.0
1979-07-03 09:30:13.530 ,4,0,0.,12.0,0.,12.0,0.,12.0,0.,12.0
1979-07-03 09:30:25.530 ,5,1,0.,12.0,0.,12.0,0.,12.0,0.,12.0
1979-07-03 09:30:37.530 ,5,1,0.,12.0,0.,12.0,0.,12.0,0.,12.0
1979-07-03 09:30:49.530 ,5,0,0.,12.0,0.,12.0,0.,12.0,0.,12.0
1979-07-03 09:31:01.530 ,5,0,0.,12.0,0.,12.0,0.,12.0,0.,12.0
1979-07-03 09:31:13.530 ,6,1,0.,12.0,0.,12.0,0.,12.0,0.,12.0
1979-07-03 09:31:25.530 ,6,1,0.,12.0,0.,12.0,0.,12.0,0.,12.0
1979-07-03 09:31:37.530 ,6,0,0.,12.0,0.,12.0,0.,12.0,0.,12.0
1979-07-03 09:31:49.530 ,6,0,0.,12.0,0.,12.0,0.,12.0,0.,12.0
1979-07-03 09:32:01.530 ,7,1,0.,12.0,0.,12.0,0.,12.0,0.,12.0
1979-07-03 09:32:13.530 ,7,1,0.,12.0,0.,12.0,0.,12.0,0.,12.0
1979-07-03 09:32:25.530 ,7,0,0.,12.0,0.,12.0,0.,12.0,0.,12.0
1979-07-03 09:32:37.530 ,7,0,0.,12.0,0.,12.0,0.,12.0,0.,12.0
1979-07-03 09:32:49.530 ,7,1,0.,12.0,0.,12.0,0.,12.0,0.,12.0
1979-07-03 09:33:01.530 ,7,1,0.,12.0,0.,12.0,0.,12.0,0.,12.0
1979-07-03 09:33:13.530 ,7,0,0.,12.0,0.,12.0,0.,12.0,0.,12.0
1979-07-03 09:33:25.530 ,7,0,0.,12.0,0.,12.0,0.,12.0,0.,12.0
1979-07-03 09:33:37.530 ,6,1,0.,12.0,0.,12.0,0.,12.0,0.,12.0
1979-07-03 09:33:49.530 ,6,1,0.,12.0,0.,12.0,0.,12.0,0.,12.0
1979-07-03 09:34:01.530 ,6,0,0.,12.0,0.,12.0,0.,12.0,0.,12.0
1979-07-03 09:34:13.530 ,6,0,0.,12.0,0.,12.0,0.,12.0,0.,12.0
1979-07-03 09:34:25.530 ,5,1,0.,12.0,0.,12.0,0.,12.0,0.,12.0
1979-07-03 09:34:37.530 ,5,1,0.,12.0,0.,12.0,0.,12.0,0.,12.0
1979-07-03 09:34:49.530 ,5,0,0.,12.0,0.,12.0,0.,12.0,0.,12.0
1979-07-03 09:35:01.530 ,5,0,0.,12.0,0.,12.0,0.,12.0,0.,12.0
1979-07-03 09:35:13.530 ,4,1,0.,12.0,0.,12.0,0.,12.0,0.,12.0
1979-07-03 09:35:25.530 ,4,1,0.,12.0,0.,12.0,0.,12.0,0.,12.0
1979-07-03 09:35:37.530 ,4,0,1.,12.0,0.,12.0,0.,12.0,0.,12.0
1979-07-03 09:35:49.530 ,4,0,0.,12.0,0.,12.0,0.,12.0,0.,12.0
1979-07-03 09:36:01.530 ,3,1,0.,12.0,0.,12.0,0.,12.0,0.,12.0
1979-07-03 09:36:13.530 ,3,1,1.,12.0,0.,12.0,0.,12.0,0.,12.0
1979-07-03 09:36:25.530 ,3,0,0.,12.0,0.,12.0,0.,12.0,0.,12.0
1979-07-03 09:36:37.530 ,3,0,0.,12.0,0.,12.0,0.,12.0,0.,12.0
1979-07-03 09:36:49.530 ,2,1,0.,12.0,0.,12.0,0.,12.0,0.,12.0
1979-07-03 09:37:01.530 ,2,1,0.,12.0,0.,12.0,0.,12.0,0.,12.0
1979-07-03 09:37:13.530 ,2,0,0.,12.0,0.,12.0,0.,12.0,0.,12.0
1979-07-03 09:37:25.530 ,2,0,0.,12.0,0.,12.0,0.,12.0,0.,12.0
1979-07-03 09:37:37.530 ,1,1,0.,12.0,0.,12.0,0.,12.0,0.,12.0
1979-07-03 09:37:49.530 ,1,1,0.,12.0,0.,12.0,0.,12.0,0.,12.0
1979-07-03 09:38:01.530 ,1,0,0.,12.0,0.,12.0,0.,12.0,0.,12.0
1979-07-03 09:38:13.530 ,1,0,0.,12.0,0.,12.0,0.,12.0,0.,12.0
1979-07-03 09:38:25.530 ,0,1,0.,12.0,0.,12.0,0.,12.0,0.,12.0
1979-07-03 09:38:37.530 ,0,1,0.,12.0,0.,12.0,0.,12.0,0.,12.0
1979-07-03 09:38:49.530 ,0,0,0.,12.0,0.,12.0,0.,12.0,0.,12.0
1979-07-03 09:39:01.530 ,0,0,0.,12.0,0.,12.0,0.,12.0,0.,12.0
1979-07-03 09:39:13.530 ,0,1,0.,12.0,0.,12.0,0.,12.0,0.,12.0
1979-07-03 09:39:25.530 ,0,1,0.,12.0,0.,12.0,0.,12.0,0.,12.0
1979-07-03 09:39:37.530 ,0,0,0.,12.0,0.,12.0,0.,12.0,0.,12.0
1979-07-03 09:39:49.530 ,0,0,0.,12.0,0.,12.0,0.,12.0,0.,12.0
1979-07-03 09:40:01.530 ,1,1,0.,12.0,0.,12.0,0.,12.0,0.,12.0
1979-07-03 09:40:13.530 ,1,1,0.,12.0,0.,12.0,0.,12.0,0.,12.0
1979-07-03 09:40:25.530 ,1,0,0.,12.0,0.,12.0,0.,12.0,0.,12.0
1979-07-03 09:40:37.530 ,1,0,0.,12.0,0.,12.0,0.,12.0,0.,12.0
1979-07-03 09:40:49.530 ,2,1,0.,12.0,0.,12.0,0.,12.0,0.,12.0
1979-07-03 09:41:01.530 ,2,1,0.,12.0,0.,12.0,0.,12.0,0.,12.0
1979-07-03 09:41:13.530 ,2,0,0.,12.0,0.,12.0,0.,12.0,0.,12.0
1979-07-03 09:41:25.530 ,2,0,0.,12.0,0.,12.0,0.,12.0,0.,12.0
1979-07-03 09:41:37.530 ,3,1,0.,12.0,0.,12.0,0.,12.0,0.,12.0
1979-07-03 09:41:49.530 ,3,1,0.,12.0,0.,12.0,0.,12.0,0.,12.0
1979-07-03 09:42:01.530 ,3,0,0.,12.0,0.,12.0,0.,12.0,0.,12.0
1979-07-03 09:42:13.530 ,3,0,0.,12.0,0.,12.0,0.,12.0,0.,12.0
1979-07-03 09:42:25.530 ,4,1,0.,12.0,0.,12.0,0.,12.0,0.,12.0
1979-07-03 09:42:37.530 ,4,1,0.,12.0,0.,12.0,0.,12.0,0.,12.0
1979-07-03 09:42:49.530 ,4,0,0.,12.0,0.,12.0,0.,12.0,0.,12.0
1979-07-03 09:43:01.530 ,4,0,0.,12.0,0.,12.0,0.,12.0,0.,12.0
1979-07-03 09:43:13.530 ,5,1,0.,12.0,0.,12.0,0.,12.0,0.,12.0
1979-07-03 09:43:25.530 ,5,1,0.,12.0,0.,12.0,0.,12.0,0.,12.0
1979-07-03 09:43:37.530 ,5,0,0.,12.0,0.,12.0,0.,12.0,0.,12.0
1979-07-03 09:43:49.530 ,5,0,0.,12.0,0.,12.0,0.,12.0,0.,12.0
1979-07-03 09:44:01.530 ,6,1,0.,12.0,0.,12.0,0.,12.0,0.,12.0
1979-07-03 09:44:13.530 ,6,1,0.,12.0,0.,12.0,0.,12.0,0.,12.0
1979-07-03 09:44:25.530 ,6,0,0.,12.0,0.,12.0,0.,12.0,0.,12.0
1979-07-03 09:44:37.530 ,6,0,0.,12.0,0.,12.0,0.,12.0,0.,12.0
1979-07-03 09:44:49.530 ,7,1,0.,12.0,0.,12.0,0.,12.0,0.,12.0
1979-07-03 09:45:01.530 ,7,1,0.,12.0,0.,12.0,0.,12.0,0.,12.0
1979-07-03 09:45:13.530 ,7,0,0.,12.0,0.,12.0,0.,12.0,0.,12.0
1979-07-03 09:45:25.530 ,7,0,0.,12.0,0.,12.0,0.,12.0,0.,12.0
1979-07-03 09:45:37.530 ,7,1,0.,12.0,0.,12.0,0.,12.0,0.,12.0
1979-07-03 09:45:49.530 ,7,1,0.,12.0,0.,12.0,0.,12.0,0.,12.0
1979-07-03 09:46:01.530 ,7,0,0.,12.0,0.,12.0,0.,12.0,0.,12.0
1979-07-03 09:46:13.530 ,7,0,0.,12.0,0.,12.0,0.,12.0,0.,12.0
1979-07-03 09:46:25.530 ,6,1,0.,12.0,0.,12.0,0.,12.0,0.,12.0
1979-07-03 09:46:37.530 ,6,1,0.,12.0,0.,12.0,0.,12.0,0.,12.0
1979-07-03 09:46:49.530 ,6,0,0.,12.0,0.,12.0,0.,12.0,0.,12.0
1979-07-03 09:47:01.530 ,6,0,0.,12.0,0.,12.0,0.,12.0,0.,12.0
1979-07-03 09:47:13.530 ,5,1,0.,12.0,0.,12.0,0.,12.0,0.,12.0
1979-07-03 09:47:25.530 ,5,1,0.,12.0,0.,12.0,0.,12.0,0.,12.0
1979-07-03 09:47:37.530 ,5,0,0.,12.0,0.,12.0,0.,12.0,0.,12.0
1979-07-03 09:47:49.530 ,5,0,0.,12.0,0.,12.0,0.,12.0,0.,12.0
1979-07-03 09:48:01.530 ,4,1,0.,12.0,0.,12.0,0.,12.0,0.,12.0
1979-07-03 09:48:13.530 ,4,1,0.,12.0,0.,12.0,0.,12.0,0.,12.0
1979-07-03 09:48:25.530 ,4,0,0.,12.0,0.,12.0,0.,12.0,0.,12.0
1979-07-03 09:48:37.530 ,4,0,0.,12.0,0.,12.0,0.,12.0,0.,12.0
1979-07-03 09:48:49.530 ,3,1,0.,12.0,0.,12.0,0.,12.0,0.,12.0
1979-07-03 09:49:01.530 ,3,1,0.,12.0,0.,12.0,0.,12.0,0.,12.0
1979-07-03 09:49:13.530 ,3,0,0.,12.0,0.,12.0,0.,12.0,0.,12.0
1979-07-03 09:49:25.530 ,3,0,0.,12.0,0.,12.0,0.,12.0,0.,12.0
1979-07-03 09:49:37.530 ,2,1,0.,12.0,0.,12.0,0.,12.0,0.,12.0
1979-07-03 09:49:49.530 ,2,1,0.,12.0,0.,12.0,0.,12.0,0.,12.0
1979-07-03 09:50:01.530 ,2,0,0.,12.0,0.,12.0,0.,12.0,0.,12.0
1979-07-03 09:50:13.530 ,2,0,0.,12.0,0.,12.0,0.,12.0,0.,12.0
1979-07-03 09:50:25.520 ,1,1,0.,12.0,0.,12.0,0.,12.0,0.,12.0
1979-07-03 09:50:37.520 ,1,1,0.,12.0,0.,12.0,0.,12.0,0.,12.0
1979-07-03 09:50:49.520 ,1,0,0.,12.0,0.,12.0,0.,12.0,0.,12.0
1979-07-03 09:51:01.520 ,1,0,1.,12.0,0.,12.0,0.,12.0,0.,12.0
1979-07-03 09:51:13.520 ,0,0,0.,12.0,0.,12.0,0.,12.0,0.,12.0
1979-07-03 09:51:25.520 ,0,0,0.,12.0,0.,12.0,0.,12.0,0.,12.0
1979-07-03 09:51:37.520 ,0,0,0.,12.0,0.,12.0,0.,12.0,0.,12.0
1979-07-03 09:51:49.520 ,0,0,0.,12.0,0.,12.0,0.,12.0,0.,12.0
1979-07-03 09:52:01.520 ,7,0,0.,12.0,0.,12.0,0.,12.0,0.,12.0
1979-07-03 09:52:13.520 ,7,0,0.,12.0,0.,12.0,0.,12.0,0.,12.0
1979-07-03 09:52:25.520 ,7,0,0.,12.0,0.,12.0,0.,12.0,0.,12.0
1979-07-03 09:52:37.520 ,7,0,0.,12.0,0.,12.0,0.,12.0,0.,12.0
1979-07-03 09:52:49.520 ,7,0,0.,12.0,0.,12.0,0.,12.0,0.,12.0
1979-07-03 09:53:01.520 ,7,0,0.,12.0,0.,12.0,0.,12.0,0.,12.0
1979-07-03 09:53:13.520 ,7,0,0.,12.0,0.,12.0,0.,12.0,0.,12.0
1979-07-03 09:53:25.520 ,7,0,0.,12.0,0.,12.0,0.,12.0,0.,12.0
1979-07-03 09:53:37.520 ,7,0,0.,12.0,0.,12.0,0.,12.0,0.,12.0
1979-07-03 09:53:49.520 ,7,0,0.,12.0,0.,12.0,0.,12.0,0.,12.0
1979-07-03 09:54:01.520 ,7,0,0.,12.0,0.,12.0,0.,12.0,0.,12.0
1979-07-03 09:54:13.520 ,7,0,0.,12.0,0.,12.0,0.,12.0,0.,12.0
1979-07-03 09:54:25.520 ,7,0,0.,12.0,0.,12.0,0.,12.0,0.,12.0
1979-07-03 09:54:37.520 ,7,0,0.,12.0,0.,12.0,0.,12.0,0.,12.0
1979-07-03 09:54:49.520 ,7,0,0.,12.0,0.,12.0,0.,12.0,0.,12.0
1979-07-03 09:55:01.520 ,7,0,0.,12.0,0.,12.0,0.,12.0,0.,12.0
1979-07-03 09:55:13.520 ,4,1,0.,12.0,0.,12.0,0.,12.0,0.,12.0
1979-07-03 09:55:25.520 ,4,1,0.,12.0,0.,12.0,0.,12.0,0.,12.0
1979-07-03 09:55:37.520 ,0,1,0.,12.0,0.,12.0,0.,12.0,0.,12.0
1979-07-03 09:55:49.520 ,0,1,0.,12.0,0.,12.0,0.,12.0,0.,12.0
1979-07-03 09:56:01.520 ,3,1,0.,12.0,0.,12.0,0.,12.0,0.,12.0
1979-07-03 09:56:13.520 ,3,1,0.,12.0,0.,12.0,0.,12.0,0.,12.0
1979-07-03 09:56:25.520 ,7,1,0.,12.0,0.,12.0,0.,12.0,0.,12.0
1979-07-03 09:56:37.520 ,7,1,0.,12.0,0.,12.0,0.,12.0,0.,12.0
1979-07-03 09:56:49.520 ,4,1,0.,12.0,0.,12.0,0.,12.0,0.,12.0
1979-07-03 09:57:01.520 ,4,1,0.,12.0,0.,12.0,0.,12.0,0.,12.0
1979-07-03 09:57:13.520 ,0,1,0.,12.0,0.,12.0,0.,12.0,0.,12.0
1979-07-03 09:57:25.520 ,0,1,0.,12.0,0.,12.0,0.,12.0,0.,12.0
1979-07-03 09:57:37.520 ,3,1,0.,12.0,0.,12.0,0.,12.0,0.,12.0
1979-07-03 09:57:49.520 ,3,1,0.,12.0,0.,12.0,0.,12.0,0.,12.0
1979-07-03 09:58:01.520 ,7,1,0.,12.0,0.,12.0,0.,12.0,0.,12.0
1979-07-03 09:58:13.520 ,7,1,0.,12.0,0.,12.0,0.,12.0,0.,12.0
1979-07-03 09:58:25.520 ,4,1,0.,12.0,0.,12.0,0.,12.0,0.,12.0
1979-07-03 09:58:37.520 ,4,1,0.,12.0,0.,12.0,0.,12.0,0.,12.0
1979-07-03 09:58:49.520 ,0,1,0.,12.0,0.,12.0,0.,12.0,0.,12.0
1979-07-03 09:59:01.520 ,0,1,0.,12.0,0.,12.0,0.,12.0,0.,12.0
1979-07-03 09:59:13.520 ,3,1,0.,12.0,0.,12.0,0.,12.0,0.,12.0
1979-07-03 09:59:25.520 ,3,1,0.,12.0,0.,12.0,0.,12.0,0.,12.0
1979-07-03 09:59:37.520 ,7,1,0.,12.0,0.,12.0,0.,12.0,0.,12.0
1979-07-03 09:59:49.520 ,7,1,0.,12.0,0.,12.0,0.,12.0,0.,12.0
1979-07-03 10:00:01.520 ,4,1,0.,12.0,0.,12.0,0.,12.0,0.,12.0
1979-07-03 10:00:13.520 ,4,1,0.,12.0,0.,12.0,0.,12.0,0.,12.0
1979-07-03 10:00:25.530 ,0,1,0.,12.0,0.,12.0,0.,12.0,0.,12.0
1979-07-03 10:00:37.530 ,0,1,0.,12.0,0.,12.0,0.,12.0,0.,12.0
1979-07-03 10:00:49.530 ,3,1,0.,12.0,0.,12.0,0.,12.0,0.,12.0
1979-07-03 10:01:01.530 ,3,1,0.,12.0,0.,12.0,0.,12.0,0.,12.0
1979-07-03 10:01:13.530 ,7,1,0.,12.0,0.,12.0,0.,12.0,0.,12.0
1979-07-03 10:01:25.530 ,7,1,0.,12.0,0.,12.0,0.,12.0,0.,12.0
1979-07-03 10:01:37.520 ,4,1,0.,12.0,0.,12.0,0.,12.0,0.,12.0
1979-07-03 10:01:49.530 ,4,1,0.,12.0,0.,12.0,0.,12.0,0.,12.0
1979-07-03 10:02:01.530 ,0,1,0.,12.0,0.,12.0,0.,12.0,0.,12.0
1979-07-03 10:02:13.520 ,0,1,0.,12.0,0.,12.0,0.,12.0,0.,12.0
1979-07-03 10:02:25.520 ,3,1,0.,12.0,0.,12.0,0.,12.0,0.,12.0
1979-07-03 10:02:37.530 ,3,1,0.,12.0,0.,12.0,0.,12.0,0.,12.0
1979-07-03 10:02:49.520 ,7,1,0.,12.0,0.,12.0,0.,12.0,0.,12.0
1979-07-03 10:03:01.530 ,7,1,0.,12.0,0.,12.0,0.,12.0,0.,12.0
1979-07-03 10:03:13.520 ,4,1,0.,12.0,0.,12.0,0.,12.0,0.,12.0
1979-07-03 10:03:25.530 ,4,1,0.,12.0,0.,12.0,0.,12.0,0.,12.0
1979-07-03 10:03:37.520 ,0,1,0.,12.0,0.,12.0,0.,12.0,0.,12.0
1979-07-03 10:03:49.530 ,0,1,0.,12.0,0.,12.0,0.,12.0,0.,12.0
1979-07-03 10:04:01.520 ,3,1,0.,12.0,0.,12.0,0.,12.0,0.,12.0
1979-07-03 10:04:13.520 ,3,1,0.,12.0,0.,12.0,0.,12.0,0.,12.0
1979-07-03 10:04:25.530 ,7,1,0.,12.0,0.,12.0,0.,12.0,0.,12.0
1979-07-03 10:04:37.530 ,7,1,0.,12.0,0.,12.0,0.,12.0,0.,12.0
1979-07-03 10:04:49.530 ,4,1,0.,12.0,0.,12.0,0.,12.0,0.,12.0
1979-07-03 10:05:01.530 ,4,1,0.,12.0,0.,12.0,0.,12.0,0.,12.0
1979-07-03 10:05:13.530 ,0,1,0.,12.0,0.,12.0,0.,12.0,0.,12.0
1979-07-03 10:05:25.530 ,0,1,1.,12.0,0.,12.0,0.,12.0,0.,12.0
1979-07-03 10:05:37.530 ,0,0,0.,12.0,0.,12.0,0.,12.0,0.,12.0
1979-07-03 10:05:49.530 ,0,0,0.,12.0,0.,12.0,0.,12.0,0.,12.0
1979-07-03 10:06:01.530 ,0,0,0.,12.0,0.,12.0,0.,12.0,0.,12.0
1979-07-03 10:06:13.530 ,0,0,0.,12.0,0.,12.0,0.,12.0,0.,12.0
1979-07-03 10:06:25.530 ,5,1,0.,12.0,0.,12.0,0.,12.0,0.,12.0
1979-07-03 10:06:37.530 ,5,1,0.,12.0,0.,12.0,0.,12.0,0.,12.0
1979-07-03 10:06:49.530 ,5,0,0.,12.0,0.,12.0,0.,12.0,0.,12.0
1979-07-03 10:07:01.530 ,5,0,0.,12.0,0.,12.0,0.,12.0,0.,12.0
1979-07-03 10:07:13.530 ,4,1,0.,12.0,0.,12.0,0.,12.0,0.,12.0
1979-07-03 10:07:25.530 ,4,1,0.,12.0,0.,12.0,0.,12.0,0.,12.0
1979-07-03 10:07:37.530 ,4,0,0.,12.0,0.,12.0,0.,12.0,0.,12.0
1979-07-03 10:07:49.530 ,4,0,0.,12.0,0.,12.0,0.,12.0,0.,12.0
1979-07-03 10:08:01.530 ,3,1,0.,12.0,0.,12.0,0.,12.0,0.,12.0
1979-07-03 10:08:13.530 ,3,1,0.,12.0,0.,12.0,0.,12.0,0.,12.0
1979-07-03 10:08:25.530 ,3,0,0.,12.0,0.,12.0,0.,12.0,0.,12.0
1979-07-03 10:08:37.530 ,3,0,0.,12.0,0.,12.0,0.,12.0,0.,12.0
1979-07-03 10:08:49.530 ,2,1,0.,12.0,0.,12.0,0.,12.0,0.,12.0
1979-07-03 10:09:01.530 ,2,1,0.,12.0,0.,12.0,0.,12.0,0.,12.0
1979-07-03 10:09:13.530 ,2,0,0.,12.0,0.,12.0,0.,12.0,0.,12.0
1979-07-03 10:09:25.530 ,2,0,0.,12.0,0.,12.0,0.,12.0,0.,12.0
1979-07-03 10:09:37.530 ,1,1,0.,12.0,0.,12.0,0.,12.0,0.,12.0
1979-07-03 10:09:49.530 ,1,1,0.,12.0,0.,12.0,0.,12.0,0.,12.0
1979-07-03 10:10:01.530 ,1,0,0.,12.0,0.,12.0,0.,12.0,0.,12.0
1979-07-03 10:10:13.530 ,1,0,0.,12.0,0.,12.0,0.,12.0,0.,12.0
1979-07-03 10:10:25.520 ,0,1,0.,12.0,0.,12.0,0.,12.0,0.,12.0
1979-07-03 10:10:37.520 ,0,1,0.,12.0,0.,12.0,0.,12.0,0.,12.0
1979-07-03 10:10:49.520 ,0,0,0.,12.0,0.,12.0,0.,12.0,0.,12.0
1979-07-03 10:11:01.520 ,0,0,0.,12.0,0.,12.0,0.,12.0,0.,12.0
1979-07-03 10:11:13.520 ,0,1,0.,12.0,0.,12.0,0.,12.0,0.,12.0
1979-07-03 10:11:25.520 ,0,1,0.,12.0,0.,12.0,0.,12.0,0.,12.0
1979-07-03 10:11:37.520 ,0,0,0.,12.0,0.,12.0,0.,12.0,0.,12.0
1979-07-03 10:11:49.520 ,0,0,0.,12.0,0.,12.0,0.,12.0,0.,12.0
1979-07-03 10:12:01.520 ,1,1,0.,12.0,0.,12.0,0.,12.0,0.,12.0
1979-07-03 10:12:13.520 ,1,1,0.,12.0,0.,12.0,0.,12.0,0.,12.0
1979-07-03 10:12:25.520 ,1,0,0.,12.0,0.,12.0,0.,12.0,0.,12.0
1979-07-03 10:12:37.520 ,1,0,0.,12.0,0.,12.0,0.,12.0,0.,12.0
1979-07-03 10:12:49.520 ,2,1,0.,12.0,0.,12.0,0.,12.0,0.,12.0
1979-07-03 10:13:01.520 ,2,1,0.,12.0,0.,12.0,0.,12.0,0.,12.0
1979-07-03 10:13:13.520 ,2,0,0.,12.0,0.,12.0,0.,12.0,0.,12.0
1979-07-03 10:13:25.520 ,2,0,0.,12.0,0.,12.0,0.,12.0,0.,12.0
1979-07-03 10:13:37.520 ,3,1,0.,12.0,0.,12.0,0.,12.0,0.,12.0
1979-07-03 10:13:49.520 ,3,1,0.,12.0,0.,12.0,0.,12.0,0.,12.0
1979-07-03 10:14:01.520 ,3,0,0.,12.0,0.,12.0,0.,12.0,0.,12.0
1979-07-03 10:14:13.520 ,3,0,0.,12.0,0.,12.0,0.,12.0,0.,12.0
1979-07-03 10:14:25.520 ,4,1,0.,12.0,0.,12.0,0.,12.0,0.,12.0
1979-07-03 10:14:37.520 ,4,1,0.,12.0,0.,12.0,0.,12.0,0.,12.0
1979-07-03 10:14:49.520 ,4,0,0.,12.0,0.,12.0,0.,12.0,0.,12.0
1979-07-03 10:15:01.520 ,4,0,1.,12.0,0.,12.0,0.,12.0,0.,12.0
1979-07-03 10:15:13.520 ,5,1,0.,12.0,0.,12.0,0.,12.0,0.,12.0
1979-07-03 10:15:25.520 ,5,1,0.,12.0,0.,12.0,0.,12.0,0.,12.0
1979-07-03 10:15:37.520 ,5,0,0.,12.0,0.,12.0,0.,12.0,0.,12.0
1979-07-03 10:15:49.520 ,5,0,0.,12.0,0.,12.0,0.,12.0,0.,12.0
1979-07-03 10:16:01.520 ,6,1,0.,12.0,0.,12.0,0.,12.0,0.,12.0
1979-07-03 10:16:13.520 ,6,1,0.,12.0,0.,12.0,0.,12.0,0.,12.0
1979-07-03 10:16:25.520 ,6,0,0.,12.0,0.,12.0,0.,12.0,0.,12.0
1979-07-03 10:16:37.520 ,6,0,0.,12.0,0.,12.0,0.,12.0,0.,12.0
1979-07-03 10:16:49.520 ,7,1,0.,12.0,0.,12.0,0.,12.0,0.,12.0
1979-07-03 10:17:01.520 ,7,1,0.,12.0,0.,12.0,0.,12.0,0.,12.0
1979-07-03 10:17:13.520 ,7,0,0.,12.0,0.,12.0,0.,12.0,0.,12.0
1979-07-03 10:17:25.520 ,7,0,0.,12.0,0.,12.0,0.,12.0,0.,12.0